Weather History for Alexandria Esle, LA

Change the Weather History Date:

Saturday, June 22, 2013

  Actual Average Record
Temperature  
Mean Temperature 80 °F -  
Max Temperature 93 °F 90 °F 101 °F (1977)
Min Temperature 69 °F 69 °F 59 °F (1976)
Cooling Degree Days 15    
Growing Degree Days 30 (Base 50)    
Moisture  
Dew Point 70 °F    
Average Humidity 81    
Maximum Humidity 97    
Minimum Humidity 48    
Precipitation  
Precipitation 0.00 in - - ()
Sea Level Pressure  
Sea Level Pressure 30.04 in    
Wind  
Wind Speed 1 mph (SE)    
Max Wind Speed 7 mph    
Max Gust Speed -    
Visibility 6 miles    
Events      
Averages and records for this station are not official NWS values.
T = Trace of Precipitation, MM = Missing Value Source: NWS Daily Summary

Daily Weather History Graph

Daily Weather History Graph

Search for Another Location

Airport:

Trip Planner

Search our weather history database for the weather conditions in past years. The results will help you decide how hot, cold, wet, or windy it might be!

Date:

Astronomy

Jun. 22, 2013 Rise Set
Actual Time 6:05 AM CDT 8:17 PM CDT
Civil Twilight 5:37 AM CDT 8:45 PM CDT
Nautical Twilight 5:03 AM CDT 9:19 PM CDT
Astronomical Twilight 4:26 AM CDT 9:56 PM CDT
Moon 7:36 PM CDT (6/22) 5:14 AM CDT (6/22)
Length of Visible Light 15h 07m
Length of Day
14h 11m
Waxing Gibbous, 99% of the Moon is Illuminated
Jun 22
Waxing Gibbous
Jun 23
Full
Jun 29
Last Quarter
Jul 8
New
Jul 15
First Quarter

Hourly Weather History & Observations

Time (CDT) Temp. Heat Index Dew Point Humidity Pressure Visibility Wind Dir Wind Speed Gust Speed Precip Events Conditions
12:53 AM 72.0 °F - 70.0 °F 93% 30.05 in 5.0 mi Calm Calm - N/A   Clear
1:53 AM 71.1 °F - 69.1 °F 93% 30.04 in 4.0 mi Calm Calm - N/A   Clear
2:48 AM 71.6 °F - 69.8 °F 94% 30.05 in 1.8 mi Calm Calm - N/A   Clear
2:53 AM 70.0 °F - 69.1 °F 97% 30.04 in 1.0 mi Calm Calm - N/A   Clear
3:34 AM 69.8 °F - 68.0 °F 94% 30.04 in 3.0 mi Calm Calm - N/A   Clear
3:43 AM 69.8 °F - 68.0 °F 94% 30.04 in 2.0 mi Calm Calm - N/A   Clear
3:47 AM 69.8 °F - 68.0 °F 94% 30.04 in 1.0 mi Calm Calm - N/A   Mist
3:53 AM 69.1 °F - 68.0 °F 96% 30.04 in 0.8 mi Calm Calm - N/A   Mist
3:56 AM 69.8 °F - 68.0 °F 94% 30.04 in 1.2 mi Calm Calm - N/A   Partly Cloudy
3:59 AM 69.8 °F - 68.0 °F 94% 30.04 in 3.0 mi Calm Calm - N/A   Partly Cloudy
4:53 AM 70.0 °F - 66.9 °F 90% 30.04 in 3.0 mi Calm Calm - N/A   Clear
5:13 AM 69.8 °F - 66.2 °F 88% 30.05 in 1.8 mi Calm Calm - N/A   Clear
5:22 AM 69.8 °F - 66.2 °F 88% 30.05 in 3.0 mi Calm Calm - N/A   Clear
5:53 AM 69.1 °F - 66.9 °F 93% 30.06 in 4.0 mi Calm Calm - N/A   Clear
6:01 AM 69.8 °F - 66.2 °F 88% 30.06 in 1.8 mi Calm Calm - N/A   Clear
6:21 AM 69.8 °F - 66.2 °F 88% 30.07 in 3.0 mi Calm Calm - N/A   Clear
6:53 AM 70.0 °F - 68.0 °F 93% 30.06 in 5.0 mi Calm Calm - N/A   Clear
7:53 AM 75.9 °F - 72.0 °F 87% 30.07 in 9.0 mi Calm Calm - N/A   Clear
8:53 AM 82.0 °F 87.9 °F 73.9 °F 76% 30.09 in 10.0 mi SSE 3.5 mph - N/A   Clear
9:53 AM 84.9 °F 92.1 °F 73.9 °F 69% 30.10 in 10.0 mi Calm Calm - N/A   Clear
10:53 AM 87.1 °F 94.5 °F 73.0 °F 63% 30.09 in 10.0 mi SSE 4.6 mph - N/A   Clear
11:53 AM 88.0 °F 95.6 °F 73.0 °F 61% 30.10 in 10.0 mi SSW 3.5 mph - N/A   Partly Cloudy
12:53 PM 89.1 °F 95.0 °F 71.1 °F 55% 30.09 in 10.0 mi Variable 3.5 mph - N/A   Overcast
1:53 PM 90.0 °F 96.9 °F 72.0 °F 55% 30.07 in 10.0 mi SE 4.6 mph - N/A   Mostly Cloudy
2:53 PM 91.0 °F 99.3 °F 73.0 °F 55% 30.05 in 10.0 mi Variable 4.6 mph - N/A   Partly Cloudy
3:53 PM 89.1 °F 96.0 °F 72.0 °F 57% 30.04 in 10.0 mi ESE 6.9 mph - N/A   Scattered Clouds
4:53 PM 91.9 °F 97.4 °F 70.0 °F 48% 30.01 in 10.0 mi SSE 5.8 mph - N/A   Clear
5:53 PM 91.0 °F 97.6 °F 71.1 °F 52% 30.00 in 10.0 mi East 4.6 mph - N/A   Partly Cloudy
6:53 PM 86.0 °F 96.0 °F 75.9 °F 72% 29.98 in 10.0 mi Calm Calm - N/A   Clear
7:53 PM 82.9 °F 91.8 °F 77.0 °F 82% 29.98 in 9.0 mi Calm Calm - N/A   Clear
8:53 PM 80.1 °F 85.1 °F 75.0 °F 85% 29.99 in 8.0 mi Calm Calm - N/A   Clear
9:53 PM 77.0 °F - 75.0 °F 94% 30.01 in 4.0 mi Calm Calm - N/A   Clear
10:53 PM 77.0 °F - 73.0 °F 88% 30.01 in 10.0 mi Calm Calm - N/A   Clear
11:53 PM 75.0 °F - 72.0 °F 90% 30.03 in 7.0 mi Calm Calm - N/A   Clear